,,,PA_Meas_PMT16A,,PR_Meas_QMR101_102,,RH_Meas_QMH101,,SR_Meas_QMS101,,TA_Meas_QMH101,,GenWind,,GenWind,
date,time,status,PA,status,PR,status,RH,status,SR,status,TA,status,DirAvg,status,SpdAvg,
2012-03-10, 00:00:04,VALID,1001.55,VALID,0,VALID,91.1346,VALID,0,VALID,24.8132,VALID,60,VALID,0,
2012-03-10, 00:01:04,VALID,1001.57,VALID,0,VALID,91.127,VALID,0,VALID,24.8113,VALID,60,VALID,0,
2012-03-10, 00:02:04,VALID,1001.54,VALID,0,VALID,91.1804,VALID,0,VALID,24.8132,VALID,60,VALID,0,
2012-03-10, 00:03:04,VALID,1001.52,VALID,0,VALID,91.249,VALID,0,VALID,24.8132,VALID,60,VALID,0,
2012-03-10, 00:04:04,VALID,1001.51,VALID,0,VALID,91.2414,VALID,0,VALID,24.8132,VALID,60,VALID,0,
2012-03-10, 00:05:04,VALID,1001.54,VALID,0,VALID,91.2567,VALID,0,VALID,24.7937,VALID,60,VALID,0,
2012-03-10, 00:06:04,VALID,1001.5,VALID,0,VALID,91.3024,VALID,0,VALID,24.7937,VALID,60,VALID,0,
2012-03-10, 00:07:04,VALID,1001.48,VALID,0,VALID,91.3406,VALID,0,VALID,24.7937,VALID,60,VALID,0,
2012-03-10, 00:08:04,VALID,1001.48,VALID,0,VALID,91.4321,VALID,0,VALID,24.7937,VALID,60,VALID,0,
2012-03-10, 00:09:04,VALID,1001.45,VALID,0,VALID,91.4779,VALID,0,VALID,24.7743,VALID,60,VALID,0,
2012-03-10, 00:10:04,VALID,1001.42,VALID,0,VALID,91.5008,VALID,0,VALID,24.7529,VALID,60,VALID,0,
2012-03-10, 00:11:04,VALID,1001.42,VALID,0,VALID,91.6457,VALID,0,VALID,24.7743,VALID,60,VALID,0,
2012-03-10, 00:12:04,VALID,1001.39,VALID,0,VALID,91.8746,VALID,0,VALID,24.7743,VALID,60,VALID,0,
2012-03-10, 00:13:04,VALID,1001.39,VALID,0,VALID,91.9051,VALID,0,VALID,24.7743,VALID,60,VALID,0,
2012-03-10, 00:14:04,VALID,1001.34,VALID,0,VALID,91.9433,VALID,0,VALID,24.7743,VALID,60,VALID,0,
2012-03-10, 00:15:04,VALID,1001.35,VALID,0,VALID,92.0119,VALID,0,VALID,24.7743,VALID,60,VALID,0,
2012-03-10, 00:16:04,VALID,1001.35,VALID,0,VALID,92.0501,VALID,0,VALID,24.7743,VALID,60,VALID,0,
2012-03-10, 00:17:04,VALID,1001.33,VALID,0,VALID,92.0577,VALID,0,VALID,24.7335,VALID,60,VALID,0,
2012-03-10, 00:18:04,VALID,1001.29,VALID,0,VALID,92.0424,VALID,0,VALID,24.7353,VALID,60,VALID,0,
2012-03-10, 00:19:04,VALID,1001.3,VALID,0,VALID,92.1111,VALID,0,VALID,24.714,VALID,60,VALID,0,
2012-03-10, 00:20:04,VALID,1001.29,VALID,0,VALID,92.0806,VALID,0,VALID,24.714,VALID,60,VALID,0,
2012-03-10, 00:21:04,VALID,1001.27,VALID,0,VALID,92.0424,VALID,0,VALID,24.7353,VALID,60,VALID,0,
2012-03-10, 00:22:04,VALID,1001.29,VALID,0,VALID,92.0272,VALID,0,VALID,24.7159,VALID,60,VALID,0,
2012-03-10, 00:23:04,VALID,1001.28,VALID,0,VALID,92.0196,VALID,0,VALID,24.6945,VALID,60,VALID,0,
2012-03-10, 00:24:04,VALID,1001.27,VALID,0,VALID,91.9509,VALID,0,VALID,24.6964,VALID,60,VALID,0,
2012-03-10, 00:25:04,VALID,1001.26,VALID,0,VALID,91.9051,VALID,0,VALID,24.7159,VALID,60,VALID,0,
2012-03-10, 00:26:04,VALID,1001.26,VALID,0,VALID,91.8365,VALID,0,VALID,24.7159,VALID,60,VALID,0,
2012-03-10, 00:27:04,VALID,1001.24,VALID,0,VALID,91.7983,VALID,0,VALID,24.7353,VALID,60,VALID,0,
2012-03-10, 00:28:04,VALID,1001.24,VALID,0,VALID,91.7907,VALID,0,VALID,24.7353,VALID,60,VALID,0,
2012-03-10, 00:29:04,VALID,1001.21,VALID,0,VALID,91.7754,VALID,0,VALID,24.714,VALID,60,VALID,0,
2012-03-10, 00:30:04,VALID,1001.16,VALID,0,VALID,91.8212,VALID,0,VALID,24.714,VALID,60,VALID,0,
2012-03-10, 00:31:04,VALID,1001.12,VALID,0,VALID,91.7449,VALID,0,VALID,24.7353,VALID,43,VALID,0.595312,
2012-03-10, 00:32:04,VALID,1001.08,VALID,0,VALID,91.8822,VALID,0,VALID,24.7353,VALID,43,VALID,0.40625,
2012-03-10, 00:33:04,VALID,1001.05,VALID,0,VALID,91.9738,VALID,0,VALID,24.7956,VALID,43,VALID,0.536719,
2012-03-10, 00:34:04,VALID,1000.99,VALID,0,VALID,91.9814,VALID,0,VALID,24.7353,VALID,42,VALID,0.471484,
2012-03-10, 00:35:04,VALID,1000.95,VALID,0,VALID,92.0501,VALID,0,VALID,24.7548,VALID,26,VALID,0.391016,
2012-03-10, 00:36:04,VALID,1000.95,VALID,0,VALID,92.073,VALID,0,VALID,24.7353,VALID,24,VALID,0.627734,
2012-03-10, 00:37:04,VALID,1000.91,VALID,0,VALID,92.1111,VALID,0,VALID,24.7548,VALID,24,VALID,0.480078,
2012-03-10, 00:38:04,VALID,1000.92,VALID,0,VALID,92.0806,VALID,0,VALID,24.7937,VALID,24,VALID,0.323047,
2012-03-10, 00:39:04,VALID,1000.89,VALID,0,VALID,92.0196,VALID,0,VALID,24.7724,VALID,24,VALID,0.00195313,
2012-03-10, 00:40:04,VALID,1000.89,VALID,0,VALID,92.0043,VALID,0,VALID,24.8132,VALID,24,VALID,0.0375,
2012-03-10, 00:41:04,VALID,1000.86,VALID,0,VALID,91.928,VALID,0,VALID,24.7937,VALID,24,VALID,0.009375,
2012-03-10, 00:42:04,VALID,1000.83,VALID,0,VALID,91.8899,VALID,0,VALID,24.7937,VALID,24,VALID,0.003125,
2012-03-10, 00:43:04,VALID,1000.81,VALID,0,VALID,91.8746,VALID,0,VALID,24.7919,VALID,24,VALID,0,
2012-03-10, 00:44:04,VALID,1000.78,VALID,0,VALID,91.9128,VALID,0,VALID,24.8132,VALID,24,VALID,0,
2012-03-10, 00:45:04,VALID,1000.79,VALID,0,VALID,91.9051,VALID,0,VALID,24.8132,VALID,24,VALID,0.133594,
2012-03-10, 00:46:04,VALID,1000.8,VALID,0,VALID,91.8288,VALID,0,VALID,24.8327,VALID,24,VALID,0.431641,
2012-03-10, 00:47:04,VALID,1000.82,VALID,0,VALID,91.8365,VALID,0,VALID,24.8522,VALID,24,VALID,0.215625,
2012-03-10, 00:48:04,VALID,1000.88,VALID,0,VALID,91.8517,VALID,0,VALID,24.8522,VALID,24,VALID,0.503906,
2012-03-10, 00:49:04,VALID,1000.86,VALID,0,VALID,91.8441,VALID,0,VALID,24.8697,VALID,34,VALID,0.380469,
2012-03-10, 00:50:04,VALID,1000.89,VALID,0,VALID,91.8059,VALID,0,VALID,24.8716,VALID,55,VALID,0.234375,
2012-03-10, 00:51:04,VALID,1000.89,VALID,0,VALID,91.7449,VALID,0,VALID,24.9106,VALID,56,VALID,0,
2012-03-10, 00:52:04,VALID,1000.92,VALID,0,VALID,91.8899,VALID,0,VALID,24.93,VALID,67,VALID,0,
2012-03-10, 00:53:04,VALID,1000.92,VALID,0,VALID,91.9738,VALID,0,VALID,24.9495,VALID,109,VALID,0.855078,
2012-03-10, 00:54:04,VALID,1000.96,VALID,0,VALID,91.9433,VALID,0,VALID,24.9495,VALID,113,VALID,1.0293,
2012-03-10, 00:55:04,VALID,1000.99,VALID,0,VALID,91.7678,VALID,0,VALID,25.0469,VALID,124,VALID,1.7832,
2012-03-10, 00:56:04,VALID,1001,VALID,0,VALID,90.8447,VALID,0,VALID,25.339,VALID,115,VALID,2.90273,
2012-03-10, 00:57:04,VALID,1001.09,VALID,0,VALID,89.5707,VALID,0,VALID,25.6506,VALID,132,VALID,2.08203,
2012-03-10, 00:58:04,VALID,1001.05,VALID,0,VALID,88.1441,VALID,0,VALID,25.8453,VALID,132,VALID,3.5,
2012-03-10, 00:59:04,VALID,1001.06,VALID,0,VALID,87.4727,VALID,0,VALID,25.9213,VALID,111,VALID,2.7832,
2012-03-10, 01:00:04,VALID,1001.1,VALID,0,VALID,86.3437,VALID,0,VALID,26.0012,VALID,136,VALID,3.88203,
2012-03-10, 01:01:04,VALID,1001.12,VALID,0,VALID,85.8173,VALID,0,VALID,26.0401,VALID,124,VALID,3.74414,
2012-03-10, 01:02:04,VALID,1001.05,VALID,0,VALID,84.6729,VALID,0,VALID,25.9817,VALID,104,VALID,3.04648,
2012-03-10, 01:03:04,VALID,1001.06,VALID,0,VALID,84.9705,VALID,0,VALID,25.9427,VALID,110,VALID,3.45625,
2012-03-10, 01:04:04,VALID,1001.01,VALID,0,VALID,84.5738,VALID,0,VALID,25.8843,VALID,114,VALID,2.06953,
2012-03-10, 01:05:04,VALID,1000.92,VALID,0,VALID,84.3907,VALID,0,VALID,25.746,VALID,102,VALID,1.77539,
2012-03-10, 01:06:04,VALID,1000.92,VALID,0,VALID,84.2991,VALID,0,VALID,25.67,VALID,104,VALID,1.93281,
2012-03-10, 01:07:04,VALID,1000.92,VALID,0,VALID,84.8713,VALID,0,VALID,25.5727,VALID,105,VALID,1.37344,
2012-03-10, 01:08:04,VALID,1000.93,VALID,0,VALID,84.7721,VALID,0,VALID,25.4344,VALID,102,VALID,1.53125,
2012-03-10, 01:09:04,VALID,1000.88,VALID,0,VALID,84.2686,VALID,0,VALID,25.3195,VALID,124,VALID,3.08086,
2012-03-10, 01:10:04,VALID,1000.88,VALID,0,VALID,84.9171,VALID,0,VALID,25.1832,VALID,91,VALID,2.72734,
2012-03-10, 01:11:04,VALID,1000.9,VALID,0,VALID,86.3208,VALID,0,VALID,25.0682,VALID,115,VALID,2.11484,
2012-03-10, 01:12:04,VALID,1000.88,VALID,0,VALID,86.687,VALID,0,VALID,24.7724,VALID,124,VALID,3.35508,
2012-03-10, 01:13:04,VALID,1000.86,VALID,0.5,VALID,88.228,VALID,0,VALID,24.5406,VALID,117,VALID,3.04883,
2012-03-10, 01:14:04,VALID,1000.84,VALID,0.5,VALID,88.7925,VALID,0,VALID,24.2681,VALID,106,VALID,2.08672,
2012-03-10, 01:15:04,VALID,1000.79,VALID,0.5,VALID,90.0589,VALID,0,VALID,24.1123,VALID,132,VALID,1.64375,
2012-03-10, 01:16:04,VALID,1000.8,VALID,0.5,VALID,90.8066,VALID,0,VALID,23.9548,VALID,124,VALID,1.6875,
2012-03-10, 01:17:04,VALID,1000.8,VALID,0.5,VALID,91.4474,VALID,0,VALID,23.8398,VALID,125,VALID,1.38281,
2012-03-10, 01:18:04,VALID,1000.78,VALID,0.5,VALID,92.1874,VALID,0,VALID,23.7619,VALID,141,VALID,1.30742,
2012-03-10, 01:19:04,VALID,1000.76,VALID,0,VALID,92.5841,VALID,0,VALID,23.6841,VALID,141,VALID,1.37305,
2012-03-10, 01:20:04,VALID,1000.71,VALID,0.5,VALID,92.9808,VALID,0,VALID,23.6239,VALID,131,VALID,0.814844,
2012-03-10, 01:21:04,VALID,1000.74,VALID,0,VALID,93.3241,VALID,0,VALID,23.6062,VALID,142,VALID,0.923828,
2012-03-10, 01:22:04,VALID,1000.75,VALID,0,VALID,93.3928,VALID,0,VALID,23.5868,VALID,142,VALID,1.01563,
2012-03-10, 01:23:04,VALID,1000.73,VALID,0,VALID,93.6598,VALID,0.0815089,VALID,23.6062,VALID,129,VALID,0.710156,
2012-03-10, 01:24:04,VALID,1000.72,VALID,0,VALID,93.7437,VALID,0,VALID,23.5868,VALID,123,VALID,0.612109,
2012-03-10, 01:25:04,VALID,1000.72,VALID,0,VALID,93.7666,VALID,0,VALID,23.5673,VALID,112,VALID,0.809766,
2012-03-10, 01:26:04,VALID,1000.71,VALID,0,VALID,93.8657,VALID,0,VALID,23.5673,VALID,111,VALID,0.41875,
2012-03-10, 01:27:04,VALID,1000.73,VALID,0,VALID,93.9954,VALID,0.0815089,VALID,23.5478,VALID,88,VALID,0.485156,
2012-03-10, 01:28:04,VALID,1000.73,VALID,0,VALID,94.0107,VALID,0,VALID,23.5478,VALID,95,VALID,0.580078,
2012-03-10, 01:29:04,VALID,1000.71,VALID,0,VALID,94.0946,VALID,0.0815089,VALID,23.5071,VALID,95,VALID,0.325,
2012-03-10, 01:30:04,VALID,1000.69,VALID,0,VALID,94.148,VALID,0,VALID,23.5071,VALID,87,VALID,0.465625,
2012-03-10, 01:31:04,VALID,1000.7,VALID,0,VALID,94.209,VALID,0,VALID,23.5089,VALID,87,VALID,0.446484,
2012-03-10, 01:32:04,VALID,1000.65,VALID,0,VALID,94.293,VALID,0,VALID,23.5284,VALID,51,VALID,0.582422,
2012-03-10, 01:33:04,VALID,1000.65,VALID,0,VALID,94.3692,VALID,0,VALID,23.5266,VALID,25,VALID,0.657812,
2012-03-10, 01:34:04,VALID,1000.63,VALID,0,VALID,94.4074,VALID,0,VALID,23.5266,VALID,24,VALID,0.233984,
2012-03-10, 01:35:04,VALID,1000.61,VALID,0.5,VALID,94.4074,VALID,0,VALID,23.5284,VALID,52,VALID,0.500391,
2012-03-10, 01:36:04,VALID,1000.63,VALID,0,VALID,94.415,VALID,0.0815089,VALID,23.5478,VALID,90,VALID,0.530078,
2012-03-10, 01:37:04,VALID,1000.63,VALID,0,VALID,94.4837,VALID,0,VALID,23.5478,VALID,94,VALID,0.362891,
2012-03-10, 01:38:04,VALID,1000.62,VALID,0,VALID,94.4913,VALID,0,VALID,23.5266,VALID,87,VALID,0.441797,
2012-03-10, 01:39:04,VALID,1000.59,VALID,0,VALID,94.4913,VALID,0,VALID,23.5266,VALID,78,VALID,0.387109,
2012-03-10, 01:40:04,VALID,1000.59,VALID,0,VALID,94.4989,VALID,0,VALID,23.5266,VALID,78,VALID,0.496094,
2012-03-10, 01:41:04,VALID,1000.55,VALID,0,VALID,94.5066,VALID,0,VALID,23.5478,VALID,62,VALID,0.403516,
2012-03-10, 01:42:04,VALID,1000.49,VALID,0,VALID,94.5066,VALID,0,VALID,23.5478,VALID,62,VALID,0,
2012-03-10, 01:43:04,VALID,1000.48,VALID,0,VALID,94.5371,VALID,0,VALID,23.5673,VALID,62,VALID,0,
2012-03-10, 01:44:04,VALID,1000.46,VALID,0,VALID,94.56,VALID,0,VALID,23.5673,VALID,62,VALID,0,
2012-03-10, 01:45:04,VALID,1000.43,VALID,0,VALID,94.5523,VALID,0,VALID,23.546,VALID,62,VALID,0,
2012-03-10, 01:46:04,VALID,1000.4,VALID,0,VALID,94.5905,VALID,0,VALID,23.5673,VALID,62,VALID,0,
2012-03-10, 01:47:04,VALID,1000.38,VALID,0,VALID,94.6134,VALID,0,VALID,23.5673,VALID,64,VALID,0.426953,
2012-03-10, 01:48:04,VALID,1000.36,VALID,0,VALID,94.6363,VALID,0,VALID,23.5868,VALID,97,VALID,0.403125,
2012-03-10, 01:49:04,VALID,1000.33,VALID,0,VALID,94.6897,VALID,0,VALID,23.6062,VALID,97,VALID,0.3125,
2012-03-10, 01:50:04,VALID,1000.35,VALID,0,VALID,94.6744,VALID,0,VALID,23.585,VALID,97,VALID,0.617188,
2012-03-10, 01:51:04,VALID,1000.33,VALID,0,VALID,94.6744,VALID,0,VALID,23.585,VALID,101,VALID,0.434375,
2012-03-10, 01:52:04,VALID,1000.31,VALID,0,VALID,94.6897,VALID,0,VALID,23.6044,VALID,102,VALID,0.732422,
2012-03-10, 01:53:04,VALID,1000.32,VALID,0,VALID,94.7202,VALID,0,VALID,23.6239,VALID,107,VALID,0.00585938,
2012-03-10, 01:54:04,VALID,1000.29,VALID,0,VALID,94.7278,VALID,0,VALID,23.6646,VALID,107,VALID,0.520703,
2012-03-10, 01:55:04,VALID,1000.28,VALID,0,VALID,94.7354,VALID,0,VALID,23.6646,VALID,107,VALID,0.303125,
2012-03-10, 01:56:04,VALID,1000.27,VALID,0,VALID,94.766,VALID,0,VALID,23.6434,VALID,107,VALID,0.00195313,
2012-03-10, 01:57:04,VALID,1000.24,VALID,0,VALID,94.7583,VALID,0,VALID,23.6434,VALID,107,VALID,0.189453,
2012-03-10, 01:58:04,VALID,1000.22,VALID,0,VALID,94.7431,VALID,0,VALID,23.6628,VALID,107,VALID,0.425781,
2012-03-10, 01:59:04,VALID,1000.24,VALID,0,VALID,94.7354,VALID,0,VALID,23.6841,VALID,106,VALID,0.230078,
2012-03-10, 02:00:04,VALID,1000.27,VALID,0,VALID,94.8041,VALID,0,VALID,23.6823,VALID,97,VALID,0.367969,
2012-03-10, 02:01:04,VALID,1000.24,VALID,0,VALID,94.7965,VALID,0,VALID,23.7035,VALID,97,VALID,0.200391,
2012-03-10, 02:02:04,VALID,1000.19,VALID,0,VALID,94.827,VALID,0,VALID,23.7035,VALID,97,VALID,0,
2012-03-10, 02:03:04,VALID,1000.18,VALID,0.5,VALID,94.8575,VALID,0,VALID,23.7425,VALID,97,VALID,0,
2012-03-10, 02:04:04,VALID,1000.19,VALID,0,VALID,94.8728,VALID,0,VALID,23.7425,VALID,97,VALID,0.480469,
2012-03-10, 02:05:04,VALID,1000.16,VALID,0,VALID,94.8956,VALID,0,VALID,23.7814,VALID,96,VALID,0.125,
2012-03-10, 02:06:04,VALID,1000.14,VALID,0,VALID,94.9109,VALID,0,VALID,23.8009,VALID,91,VALID,0.475781,
2012-03-10, 02:07:04,VALID,1000.12,VALID,0,VALID,94.9338,VALID,0,VALID,23.8009,VALID,91,VALID,0.283594,
2012-03-10, 02:08:04,VALID,1000.12,VALID,0,VALID,94.9262,VALID,0,VALID,23.8009,VALID,91,VALID,0.287109,
2012-03-10, 02:09:04,VALID,1000.13,VALID,0,VALID,94.9414,VALID,0,VALID,23.8203,VALID,91,VALID,0,
2012-03-10, 02:10:04,VALID,1000.15,VALID,0,VALID,94.9414,VALID,0,VALID,23.8398,VALID,91,VALID,0,
2012-03-10, 02:11:04,VALID,1000.15,VALID,0,VALID,94.949,VALID,0,VALID,23.8593,VALID,91,VALID,0,
2012-03-10, 02:12:04,VALID,1000.13,VALID,0,VALID,94.949,VALID,0,VALID,23.8593,VALID,91,VALID,0,
2012-03-10, 02:13:04,VALID,1000.12,VALID,0,VALID,94.9567,VALID,0,VALID,23.8575,VALID,91,VALID,0,
2012-03-10, 02:14:04,VALID,1000.14,VALID,0,VALID,94.9567,VALID,0,VALID,23.8575,VALID,91,VALID,0,
2012-03-10, 02:15:04,VALID,1000.15,VALID,0,VALID,94.9796,VALID,0,VALID,23.8769,VALID,91,VALID,0,
2012-03-10, 02:16:04,VALID,1000.14,VALID,0,VALID,94.949,VALID,0,VALID,23.8982,VALID,91,VALID,0,
2012-03-10, 02:17:04,VALID,1000.16,VALID,0,VALID,94.9567,VALID,0,VALID,23.8982,VALID,91,VALID,0,
2012-03-10, 02:18:04,VALID,1000.12,VALID,0,VALID,94.949,VALID,0,VALID,23.8982,VALID,91,VALID,0,
2012-03-10, 02:19:04,VALID,1000.12,VALID,0,VALID,94.9719,VALID,0,VALID,23.8769,VALID,91,VALID,0,
2012-03-10, 02:20:04,VALID,1000.11,VALID,0,VALID,94.9796,VALID,0,VALID,23.8964,VALID,91,VALID,0,
2012-03-10, 02:21:04,VALID,1000.13,VALID,0,VALID,94.9643,VALID,0,VALID,23.8982,VALID,91,VALID,0,
2012-03-10, 02:22:04,VALID,1000.13,VALID,0,VALID,94.9567,VALID,0,VALID,23.8982,VALID,91,VALID,0,
2012-03-10, 02:23:04,VALID,1000.16,VALID,0,VALID,95.0024,VALID,0,VALID,23.8769,VALID,91,VALID,0,
2012-03-10, 02:24:04,VALID,1000.13,VALID,0,VALID,94.9948,VALID,0,VALID,23.8964,VALID,91,VALID,0,
2012-03-10, 02:25:04,VALID,1000.15,VALID,0,VALID,94.9872,VALID,0,VALID,23.9177,VALID,91,VALID,0,
2012-03-10, 02:26:04,VALID,1000.14,VALID,0,VALID,95.0177,VALID,0,VALID,23.9371,VALID,91,VALID,0,
2012-03-10, 02:27:04,VALID,1000.1,VALID,0,VALID,95.0101,VALID,0,VALID,23.9159,VALID,91,VALID,0,
2012-03-10, 02:28:04,VALID,1000.12,VALID,0,VALID,95.0406,VALID,0,VALID,23.9371,VALID,91,VALID,0,
2012-03-10, 02:29:04,VALID,1000.1,VALID,0,VALID,95.0482,VALID,0,VALID,23.9761,VALID,91,VALID,0.347266,
2012-03-10, 02:30:04,VALID,1000.08,VALID,0,VALID,95.0558,VALID,0,VALID,23.9548,VALID,70,VALID,0.346484,
2012-03-10, 02:31:04,VALID,1000.09,VALID,0,VALID,95.0558,VALID,0,VALID,23.9761,VALID,32,VALID,0.594531,
2012-03-10, 02:32:04,VALID,1000.08,VALID,0,VALID,95.0406,VALID,0,VALID,23.9548,VALID,20,VALID,0.457422,
2012-03-10, 02:33:04,VALID,1000.1,VALID,0,VALID,95.0253,VALID,0,VALID,23.9159,VALID,18,VALID,0.476953,
2012-03-10, 02:34:04,VALID,1000.09,VALID,0,VALID,95.0024,VALID,0,VALID,23.9371,VALID,18,VALID,0.485938,
2012-03-10, 02:35:04,VALID,1000.09,VALID,0,VALID,95.0406,VALID,0,VALID,23.9371,VALID,9,VALID,0.502734,
2012-03-10, 02:36:04,VALID,1000.11,VALID,0,VALID,95.0482,VALID,0,VALID,23.9566,VALID,2,VALID,0.389453,
2012-03-10, 02:37:04,VALID,1000.11,VALID,0,VALID,95.1016,VALID,0,VALID,23.9761,VALID,2,VALID,0.345703,
2012-03-10, 02:38:04,VALID,1000.08,VALID,0,VALID,95.1321,VALID,0,VALID,24.015,VALID,360,VALID,0.585156,
2012-03-10, 02:39:04,VALID,1000.1,VALID,0,VALID,95.1321,VALID,0,VALID,24.0345,VALID,360,VALID,0.546484,
2012-03-10, 02:40:04,VALID,1000.09,VALID,0,VALID,95.1169,VALID,0,VALID,24.0345,VALID,360,VALID,0.305469,
2012-03-10, 02:41:04,VALID,1000.08,VALID,0,VALID,95.1245,VALID,0,VALID,24.0132,VALID,360,VALID,0.510156,
2012-03-10, 02:42:04,VALID,1000.07,VALID,0,VALID,95.1321,VALID,0,VALID,24.0345,VALID,359,VALID,0.515234,
2012-03-10, 02:43:04,VALID,1000.09,VALID,0,VALID,95.1016,VALID,0,VALID,24.015,VALID,359,VALID,0.413672,
2012-03-10, 02:44:04,VALID,1000.08,VALID,0,VALID,95.0787,VALID,0,VALID,24.015,VALID,359,VALID,0.6125,
2012-03-10, 02:45:04,VALID,1000.08,VALID,0,VALID,95.1016,VALID,0,VALID,23.9742,VALID,359,VALID,0.547266,
2012-03-10, 02:46:04,VALID,1000.07,VALID,0,VALID,95.1321,VALID,0,VALID,24.015,VALID,359,VALID,0.65,
2012-03-10, 02:47:04,VALID,1000.08,VALID,0,VALID,95.1169,VALID,0,VALID,23.9937,VALID,359,VALID,0.394531,
2012-03-10, 02:48:04,VALID,1000.07,VALID,0,VALID,95.1474,VALID,0,VALID,24.015,VALID,359,VALID,0.414063,
2012-03-10, 02:49:04,VALID,1000.05,VALID,0,VALID,95.1245,VALID,0,VALID,24.015,VALID,359,VALID,0.280078,
2012-03-10, 02:50:04,VALID,1000.05,VALID,0,VALID,95.1169,VALID,0,VALID,24.015,VALID,359,VALID,0.304297,
2012-03-10, 02:51:04,VALID,1000.07,VALID,0,VALID,95.1245,VALID,0,VALID,24.0132,VALID,359,VALID,0.267969,
2012-03-10, 02:52:04,VALID,1000.03,VALID,0,VALID,95.155,VALID,0,VALID,24.0132,VALID,359,VALID,0.157422,
2012-03-10, 02:53:04,VALID,1000.03,VALID,0,VALID,95.1474,VALID,0,VALID,24.0132,VALID,359,VALID,0,
2012-03-10, 02:54:04,VALID,999.975,VALID,0,VALID,95.155,VALID,0,VALID,24.0326,VALID,359,VALID,0,
2012-03-10, 02:55:04,VALID,999.953,VALID,0,VALID,95.1627,VALID,0,VALID,24.0345,VALID,359,VALID,0.29375,
2012-03-10, 02:56:04,VALID,999.927,VALID,0,VALID,95.1627,VALID,0,VALID,24.0345,VALID,359,VALID,0.420703,
2012-03-10, 02:57:04,VALID,999.915,VALID,0,VALID,95.1398,VALID,0,VALID,24.0132,VALID,359,VALID,0.5375,
2012-03-10, 02:58:04,VALID,999.915,VALID,0,VALID,95.1627,VALID,0,VALID,24.015,VALID,359,VALID,0.620703,
2012-03-10, 02:59:04,VALID,999.876,VALID,0,VALID,95.1627,VALID,0,VALID,24.015,VALID,359,VALID,0.509766,
2012-03-10, 03:00:04,VALID,999.871,VALID,0,VALID,95.1779,VALID,0,VALID,24.0539,VALID,359,VALID,0.542969,
2012-03-10, 03:01:04,VALID,999.871,VALID,0,VALID,95.1779,VALID,0,VALID,24.0132,VALID,359,VALID,0.489844,
2012-03-10, 03:02:04,VALID,999.859,VALID,0,VALID,95.1627,VALID,0,VALID,24.0132,VALID,359,VALID,0.344922,
2012-03-10, 03:03:04,VALID,999.865,VALID,0,VALID,95.1932,VALID,0,VALID,24.0539,VALID,359,VALID,0,
2012-03-10, 03:04:04,VALID,999.872,VALID,0,VALID,95.2084,VALID,0,VALID,24.0734,VALID,359,VALID,0,
2012-03-10, 03:05:04,VALID,999.885,VALID,0,VALID,95.2084,VALID,0,VALID,24.0521,VALID,359,VALID,0,
2012-03-10, 03:06:04,VALID,999.9,VALID,0,VALID,95.2084,VALID,0,VALID,24.0539,VALID,359,VALID,0,
2012-03-10, 03:07:04,VALID,999.893,VALID,0,VALID,95.2084,VALID,0,VALID,24.0521,VALID,359,VALID,0,
2012-03-10, 03:08:04,VALID,999.92,VALID,0,VALID,95.2161,VALID,0,VALID,24.0521,VALID,359,VALID,0,
2012-03-10, 03:09:04,VALID,999.903,VALID,0,VALID,95.2008,VALID,0,VALID,24.0521,VALID,359,VALID,0,
2012-03-10, 03:10:04,VALID,999.899,VALID,0,VALID,95.2161,VALID,0,VALID,24.0521,VALID,359,VALID,0,
2012-03-10, 03:11:04,VALID,999.901,VALID,0,VALID,95.2161,VALID,0,VALID,24.0521,VALID,359,VALID,0,
2012-03-10, 03:12:04,VALID,999.88,VALID,0,VALID,95.2389,VALID,0,VALID,24.0521,VALID,359,VALID,0,
2012-03-10, 03:13:04,VALID,999.865,VALID,0,VALID,95.2313,VALID,0,VALID,24.0716,VALID,359,VALID,0,
2012-03-10, 03:14:04,VALID,999.868,VALID,0,VALID,95.2466,VALID,0,VALID,24.091,VALID,359,VALID,0,
2012-03-10, 03:15:04,VALID,999.866,VALID,0,VALID,95.2542,VALID,0,VALID,24.1105,VALID,359,VALID,0,
2012-03-10, 03:16:04,VALID,999.859,VALID,0,VALID,95.2542,VALID,0,VALID,24.1494,VALID,359,VALID,0,
2012-03-10, 03:17:04,VALID,999.879,VALID,0,VALID,95.2618,VALID,0,VALID,24.13,VALID,359,VALID,0,
2012-03-10, 03:18:04,VALID,999.872,VALID,0,VALID,95.2618,VALID,0,VALID,24.1105,VALID,359,VALID,0,
2012-03-10, 03:19:04,VALID,999.827,VALID,0,VALID,95.2542,VALID,0,VALID,24.13,VALID,359,VALID,0,
2012-03-10, 03:20:04,VALID,999.798,VALID,0,VALID,95.2542,VALID,0,VALID,24.1513,VALID,359,VALID,0,
2012-03-10, 03:21:04,VALID,999.865,VALID,0,VALID,95.2847,VALID,0,VALID,24.1494,VALID,359,VALID,0,
2012-03-10, 03:22:04,VALID,999.854,VALID,0,VALID,95.2923,VALID,0,VALID,24.2078,VALID,359,VALID,0,
2012-03-10, 03:23:04,VALID,999.862,VALID,0,VALID,95.3076,VALID,0,VALID,24.2291,VALID,359,VALID,0,
2012-03-10, 03:24:04,VALID,999.869,VALID,0,VALID,95.2771,VALID,0,VALID,24.2291,VALID,359,VALID,0,
2012-03-10, 03:25:04,VALID,999.885,VALID,0,VALID,95.2695,VALID,0,VALID,24.2078,VALID,359,VALID,0,
2012-03-10, 03:26:04,VALID,999.893,VALID,0,VALID,95.2847,VALID,0,VALID,24.2291,VALID,359,VALID,0,
2012-03-10, 03:27:04,VALID,999.883,VALID,0,VALID,95.2695,VALID,0,VALID,24.1884,VALID,359,VALID,0,
2012-03-10, 03:28:04,VALID,999.922,VALID,0,VALID,95.2695,VALID,0,VALID,24.1884,VALID,359,VALID,0,
2012-03-10, 03:29:04,VALID,999.898,VALID,0,VALID,95.2542,VALID,0,VALID,24.2097,VALID,359,VALID,0,
2012-03-10, 03:30:04,VALID,999.93,VALID,0,VALID,95.2542,VALID,0,VALID,24.1707,VALID,359,VALID,0,
2012-03-10, 03:31:04,VALID,999.926,VALID,0,VALID,95.2389,VALID,0,VALID,24.1513,VALID,359,VALID,0,
2012-03-10, 03:32:04,VALID,999.925,VALID,0,VALID,95.2389,VALID,0,VALID,24.1105,VALID,359,VALID,0,
2012-03-10, 03:33:04,VALID,999.912,VALID,0,VALID,95.2008,VALID,0,VALID,24.13,VALID,359,VALID,0,
2012-03-10, 03:34:04,VALID,999.93,VALID,0,VALID,95.2313,VALID,0,VALID,24.1105,VALID,359,VALID,0,
2012-03-10, 03:35:04,VALID,999.9,VALID,0,VALID,95.2161,VALID,0,VALID,24.091,VALID,359,VALID,0,
2012-03-10, 03:36:04,VALID,999.913,VALID,0,VALID,95.2313,VALID,0,VALID,24.0716,VALID,359,VALID,0,
2012-03-10, 03:37:04,VALID,999.912,VALID,0,VALID,95.2389,VALID,0,VALID,24.0734,VALID,359,VALID,0,
2012-03-10, 03:38:04,VALID,999.911,VALID,0,VALID,95.2237,VALID,0,VALID,24.0734,VALID,359,VALID,0,
2012-03-10, 03:39:04,VALID,999.939,VALID,0,VALID,95.2389,VALID,0,VALID,24.0539,VALID,359,VALID,0,
2012-03-10, 03:40:04,VALID,999.943,VALID,0,VALID,95.3,VALID,0,VALID,24.0929,VALID,359,VALID,0,
2012-03-10, 03:41:04,VALID,999.927,VALID,0,VALID,95.3457,VALID,0,VALID,24.1513,VALID,359,VALID,0,
2012-03-10, 03:42:04,VALID,999.941,VALID,0,VALID,95.3534,VALID,0,VALID,24.2097,VALID,359,VALID,0,
2012-03-10, 03:43:04,VALID,999.963,VALID,0,VALID,95.361,VALID,0,VALID,24.2486,VALID,359,VALID,0,
2012-03-10, 03:44:04,VALID,999.991,VALID,0,VALID,95.3229,VALID,0,VALID,24.2291,VALID,359,VALID,0,
2012-03-10, 03:45:04,VALID,999.982,VALID,0,VALID,95.2771,VALID,0,VALID,24.2097,VALID,359,VALID,0,
2012-03-10, 03:46:04,VALID,1000.01,VALID,0,VALID,95.2771,VALID,0,VALID,24.1494,VALID,359,VALID,0,
2012-03-10, 03:47:04,VALID,1000.03,VALID,0,VALID,95.2923,VALID,0,VALID,24.1707,VALID,359,VALID,0,
2012-03-10, 03:48:04,VALID,1000.01,VALID,0,VALID,95.2923,VALID,0,VALID,24.1513,VALID,359,VALID,0,
2012-03-10, 03:49:04,VALID,1000.02,VALID,0,VALID,95.2847,VALID,0,VALID,24.1513,VALID,359,VALID,0,
2012-03-10, 03:50:04,VALID,999.995,VALID,0,VALID,95.3,VALID,0,VALID,24.1707,VALID,359,VALID,0,
2012-03-10, 03:51:04,VALID,1000.01,VALID,0,VALID,95.3229,VALID,0,VALID,24.1494,VALID,359,VALID,0,
2012-03-10, 03:52:04,VALID,1000.04,VALID,0,VALID,95.2771,VALID,0,VALID,24.1494,VALID,358,VALID,0,
2012-03-10, 03:53:04,VALID,1000.02,VALID,0,VALID,95.3,VALID,0,VALID,24.13,VALID,358,VALID,0,